Theta_e
312 317 321 320 323 320 313 315 313 312 315 311 311 313 311 311 309 307 309 308 306 309 312 311 310 310 310 309 303 298 297 296 295 295 295 295 296 296 296 296 295 294 294 294 293 293 293 292 292 291 292 292 292 292 291 290 290 291 291 291 291 291 291 291 292 292 291 291 291 291 291 291 291 291 292 292 292 293 293 293 292 292 292 292 292 292
315 318 323 323 321 316 311 311 311 309 310 308 310 311 310 310 309 307 308 308 306 308 313 312 310 309 308 308 303 298 297 296 295 295 295 295 295 296 296 295 294 294 294 293 293 293 293 292 292 292 292 292 292 291 290 290 290 290 290 290 290 290 290 291 291 291 291 291 290 290 290 290 291 291 291 292 292 292 292 292 292 292 292 292 292 291
322 322 322 318 311 308 309 309 309 309 309 308 309 310 311 310 310 310 309 309 307 307 312 312 309 308 308 307 303 298 297 297 297 296 296 295 295 296 296 295 294 293 293 293 293 293 293 293 292 292 292 291 291 290 290 290 290 290 290 290 290 290 290 290 290 290 290 290 290 290 290 290 291 291 291 292 292 292 292 292 292 292 292 292 292 291
324 328 319 308 304 307 310 309 309 308 308 310 309 309 312 310 310 312 310 310 310 307 309 310 307 306 306 307 304 299 297 298 297 297 296 296 296 296 296 295 294 294 294 293 293 293 293 293 292 292 292 291 290 290 290 290 290 290 290 289 289 289 289 290 290 290 290 290 290 290 291 291 291 292 292 293 293 292 292 292 292 292 291 291 291 291
321 320 309 305 308 310 310 310 311 310 311 318 315 310 311 311 310 311 310 310 309 310 310 307 306 308 307 306 306 299 296 297 296 296 296 295 296 297 296 295 294 294 294 293 293 293 293 293 292 292 291 290 290 290 290 290 290 289 289 289 289 289 289 289 289 289 289 290 290 290 291 291 291 292 292 292 292 292 292 291 291 291 291 290 290 290
316 310 306 309 312 311 311 313 315 313 313 320 319 313 311 311 311 311 310 309 309 312 312 306 308 313 309 307 306 300 296 297 295 294 294 295 295 296 295 294 293 294 294 293 293 293 293 293 292 292 291 290 290 290 290 289 289 289 289 289 289 289 289 289 289 289 289 289 290 290 290 290 291 291 291 290 290 291 291 291 291 291 291 290 289 289
312 307 309 315 315 314 313 314 318 315 313 316 315 314 313 310 310 310 309 309 311 312 308 305 308 310 307 309 309 303 299 297 295 294 294 294 295 295 294 294 293 293 293 293 293 293 293 292 292 291 290 290 290 290 290 289 289 289 289 289 289 289 289 289 289 289 289 289 289 289 289 289 290 290 290 290 289 289 290 290 291 291 291 289 289 288
311 308 312 315 315 316 313 314 317 313 315 317 312 311 312 309 309 308 306 307 310 308 305 305 306 305 305 307 306 303 301 299 296 295 294 293 294 294 293 293 293 293 293 293 293 293 293 292 291 291 290 290 290 290 289 289 289 289 289 289 289 289 289 289 289 289 289 289 289 289 289 289 289 289 289 290 290 289 289 289 290 290 290 289 287 286
309 311 315 315 314 314 315 319 317 312 315 317 311 307 306 306 306 306 305 307 307 304 305 306 305 306 308 307 302 299 300 300 297 296 295 293 293 293 293 293 293 293 292 292 293 293 292 292 291 290 290 290 290 290 289 289 289 289 289 289 289 289 289 289 288 289 289 289 289 289 289 289 290 289 289 289 289 289 289 288 289 289 289 288 286 285
310 310 312 315 316 315 319 320 315 314 313 309 307 307 307 307 306 305 304 306 306 305 306 307 305 307 311 311 304 299 301 301 299 297 295 294 293 293 293 293 292 292 292 292 293 292 292 291 291 290 290 290 290 290 289 289 289 289 289 289 289 289 289 289 288 289 289 289 289 289 289 289 290 289 289 288 288 288 288 288 289 288 287 286 285 285
310 306 307 311 313 312 314 310 306 309 306 304 308 310 312 312 308 308 307 306 307 309 310 309 307 307 310 311 306 304 305 304 302 300 296 294 293 293 293 292 292 291 292 292 292 292 291 291 290 290 290 290 290 290 289 289 289 289 289 289 289 289 288 288 288 289 289 289 289 289 289 289 289 289 288 288 287 287 287 287 288 288 287 285 284 283
311 307 307 307 307 306 309 308 304 305 304 307 314 313 313 314 313 313 312 309 310 315 314 307 304 305 308 310 306 304 304 302 303 301 298 296 293 292 292 291 291 291 292 292 291 291 291 291 290 290 290 290 289 289 289 289 289 289 289 289 289 288 288 288 288 288 289 289 289 288 289 289 288 288 287 287 286 286 286 286 287 287 285 285 283 281
316 314 308 306 305 306 310 310 307 309 309 311 314 313 314 317 318 317 315 313 314 317 311 302 302 304 305 308 306 304 303 300 301 299 297 296 293 292 292 291 291 291 291 291 291 291 291 290 290 289 289 289 289 289 289 289 289 289 289 289 289 289 288 288 288 288 288 289 289 288 288 288 287 287 286 286 286 286 285 285 285 285 283 283 282 280
321 318 309 308 309 307 310 312 312 315 312 309 310 314 316 317 318 318 317 317 318 317 309 299 301 305 306 306 304 303 300 297 298 298 297 296 293 292 291 290 291 291 291 291 291 291 291 290 290 289 289 289 289 289 289 289 289 289 289 289 289 288 288 288 288 288 288 289 289 288 288 287 287 287 286 286 286 286 285 284 284 283 282 280 280 279
320 322 316 313 312 308 308 311 317 320 311 307 310 313 315 316 318 318 318 319 317 316 309 300 302 309 310 305 298 295 293 292 295 296 295 294 293 292 291 290 291 290 290 291 290 291 290 290 290 289 289 289 289 289 289 289 289 289 289 288 288 288 288 288 288 288 288 288 288 288 287 287 287 287 287 286 285 285 285 284 283 282 280 279 279 278
314 322 317 307 305 307 308 306 309 316 313 307 307 309 311 314 316 315 314 314 311 310 307 303 306 309 307 301 294 292 291 290 291 291 291 292 291 290 290 290 290 290 290 290 290 290 290 290 289 289 289 289 289 289 289 289 289 289 289 289 289 288 288 288 288 288 288 288 288 287 287 286 286 287 286 286 285 284 284 283 282 281 279 279 279 278
313 320 313 303 302 304 304 303 302 309 313 307 305 308 310 309 310 310 309 308 307 308 308 307 308 308 307 302 295 292 292 291 290 289 289 289 289 289 289 289 289 290 290 290 290 290 290 289 289 288 289 289 289 289 289 289 289 289 289 289 289 289 288 288 288 288 288 288 288 287 286 286 286 286 286 286 285 284 283 283 281 280 279 278 278 277
315 317 310 306 309 302 296 299 299 300 306 308 308 309 308 305 305 306 308 308 307 308 310 309 308 308 310 306 297 293 293 292 290 290 289 288 288 288 288 289 289 289 290 290 290 290 289 289 289 289 289 289 289 289 289 289 289 289 289 289 289 289 289 288 288 288 288 287 287 287 286 286 285 285 285 285 285 284 282 282 281 279 278 278 277 276
313 315 311 304 306 302 296 301 304 300 300 305 306 305 307 310 308 306 307 309 310 311 312 311 309 308 309 307 303 298 295 293 291 290 290 289 288 287 288 289 289 289 290 289 290 290 289 289 289 289 289 289 289 289 289 289 289 289 289 289 289 289 289 288 288 288 287 287 287 286 286 285 285 284 284 285 284 283 281 281 280 279 278 278 277 276
311 314 314 302 300 303 301 304 311 307 299 298 300 301 304 307 308 308 307 308 311 313 313 314 313 312 308 306 308 304 297 294 292 290 291 290 287 288 288 289 289 289 289 289 289 289 289 289 289 289 289 289 289 289 289 289 289 289 289 289 289 289 289 288 288 287 287 287 286 286 285 284 284 284 284 284 284 282 280 280 279 278 277 277 276 275
310 313 315 304 299 303 305 305 310 310 304 300 301 302 302 302 305 307 304 305 309 310 312 312 313 314 308 303 306 305 298 294 292 291 291 289 287 288 289 289 289 289 289 289 289 289 289 290 289 290 289 289 289 289 289 289 289 290 289 289 289 289 288 288 287 287 286 286 286 285 285 284 284 284 284 284 283 281 280 279 278 278 277 276 276 275
311 313 313 307 303 305 308 308 305 307 308 304 303 304 303 303 306 307 306 306 305 307 311 311 312 313 307 301 303 303 299 295 292 292 292 289 288 289 289 290 289 289 289 289 289 290 290 290 289 289 289 289 289 289 289 289 289 289 289 289 289 288 288 287 287 286 286 286 285 285 284 284 283 283 283 283 283 281 280 279 278 277 276 276 275 274
310 313 311 309 309 305 304 303 299 300 303 303 304 306 304 304 305 308 310 308 305 305 306 306 308 309 303 299 301 300 297 294 292 291 291 288 288 289 289 289 289 289 290 290 290 290 290 289 289 289 289 289 289 289 289 289 289 289 289 289 288 288 288 287 286 286 285 285 285 284 283 283 283 283 283 283 282 281 280 279 278 277 275 275 274 274
307 312 311 311 313 305 300 300 299 298 299 300 302 303 303 304 305 307 308 308 307 306 304 304 307 307 301 298 298 295 293 293 291 291 290 288 288 289 289 289 289 289 289 290 290 289 289 289 289 289 289 289 289 289 289 289 289 289 289 288 288 287 287 287 286 286 285 285 284 284 283 282 282 282 282 282 282 281 279 278 277 276 274 274 273 273
310 314 312 312 315 311 307 305 304 302 299 299 301 302 301 303 304 305 304 304 307 306 304 305 309 309 301 296 295 293 292 292 290 289 290 288 288 288 288 288 289 289 289 289 289 289 289 289 289 289 289 288 288 288 289 289 289 289 289 288 288 287 287 286 286 285 285 284 284 283 283 282 282 282 282 282 281 280 279 278 277 275 274 273 272 272
312 315 313 312 314 314 312 310 312 310 301 298 300 300 300 301 302 303 303 304 306 306 305 306 308 308 302 296 295 294 292 292 290 288 289 289 288 288 288 288 288 289 289 289 289 289 289 289 289 289 288 288 288 288 289 289 289 288 288 287 287 287 286 286 285 285 284 284 284 283 283 282 281 281 281 281 281 280 278 277 276 274 273 272 271 271
315 314 311 312 313 312 312 310 313 312 305 302 303 300 299 300 301 302 303 304 305 305 306 306 306 307 305 301 298 295 292 292 291 289 288 288 288 288 288 288 289 289 289 288 288 289 288 288 288 288 288 288 288 288 288 288 288 288 287 286 286 286 285 285 285 284 284 284 284 283 283 282 281 281 281 282 281 280 277 276 276 275 274 272 271 271
316 313 309 310 311 310 312 311 311 311 307 307 307 303 299 299 300 302 303 304 305 305 306 307 306 307 307 305 302 297 293 292 290 289 288 288 288 288 288 288 288 288 288 288 288 288 288 288 288 287 288 288 288 288 288 288 287 287 286 286 286 285 285 285 284 284 284 284 284 283 282 281 281 281 282 282 281 279 278 278 277 276 276 274 272 272
313 313 310 310 309 309 310 310 310 310 307 307 308 307 302 299 299 302 302 303 304 305 307 308 307 307 307 306 303 299 295 293 291 289 289 289 288 288 288 288 287 288 288 288 288 288 287 287 287 287 288 288 288 288 287 287 287 287 286 286 286 285 285 284 284 284 284 284 283 282 281 281 281 282 283 283 282 281 280 280 279 277 276 276 274 273
308 311 310 309 309 309 308 308 308 307 306 306 306 307 306 302 300 301 301 302 303 304 305 306 306 306 306 305 303 300 297 294 291 289 289 288 288 288 287 287 287 288 288 288 287 287 287 287 287 287 288 288 288 287 287 287 287 287 286 286 286 286 285 284 284 284 284 283 283 281 280 280 281 282 283 283 283 282 281 280 280 279 277 276 275 274
305 310 310 309 309 309 308 308 308 306 306 306 306 305 306 305 303 303 302 303 303 303 303 303 303 303 303 302 302 298 295 293 291 289 288 288 288 287 287 287 288 288 287 287 286 286 287 287 287 288 288 288 288 287 287 287 287 287 286 286 286 285 284 284 284 283 283 283 282 281 280 281 282 282 283 283 283 283 282 281 280 279 277 276 275 274
305 307 310 309 309 310 308 307 305 303 303 303 304 304 304 304 305 305 304 304 304 303 303 302 302 302 301 301 300 296 294 293 291 288 287 288 288 288 287 287 287 288 287 287 287 287 287 287 287 288 288 287 287 287 287 287 287 287 286 286 285 285 284 284 283 283 283 282 281 280 280 281 282 283 284 283 283 283 282 281 280 278 276 275 275 274
305 307 309 308 309 309 305 302 301 302 304 305 306 306 304 303 304 304 304 304 303 303 303 303 303 303 302 301 300 297 295 294 291 289 288 288 287 287 288 288 288 288 288 288 288 288 287 287 287 288 287 287 287 287 287 287 286 286 286 285 285 284 284 284 283 283 282 281 280 279 280 281 282 284 284 284 283 283 282 281 280 278 275 274 274 273
304 306 307 307 311 308 301 299 301 304 308 309 307 307 307 304 303 303 303 304 303 302 302 302 302 302 302 301 300 297 295 293 292 292 292 291 289 288 288 288 288 288 288 288 288 287 287 287 287 287 287 287 287 287 287 286 286 286 285 285 284 284 284 284 283 282 281 281 280 279 280 281 282 283 284 283 283 282 282 281 279 277 275 273 272 272
303 305 305 307 308 304 298 299 303 308 310 307 303 303 305 304 303 303 303 302 302 302 301 301 301 301 301 300 297 296 294 293 293 293 292 292 291 289 288 288 288 288 288 288 288 287 287 287 287 287 287 287 287 287 286 286 286 286 286 285 284 284 284 283 283 281 281 280 279 279 279 281 282 283 284 283 283 282 281 280 278 276 274 272 272 272
305 304 304 305 304 302 300 302 307 310 307 305 303 300 299 300 300 300 301 301 301 300 300 300 300 300 301 299 295 294 293 292 291 291 291 291 291 290 290 289 289 289 289 288 287 287 287 287 287 287 287 287 286 286 286 286 286 286 285 285 284 284 283 282 282 281 280 279 278 279 279 281 282 283 284 283 282 281 279 278 276 275 272 271 271 271
305 304 305 305 305 306 306 304 306 307 305 306 307 301 297 299 299 300 302 303 301 300 300 299 299 299 299 296 292 291 291 290 290 290 290 290 290 290 290 289 289 289 288 287 287 287 287 287 287 287 286 286 286 286 286 286 286 285 285 284 284 283 283 282 281 280 279 278 278 278 279 281 282 282 283 282 281 280 278 276 274 273 271 269 270 270
304 305 305 307 307 307 307 305 305 307 307 307 306 301 298 298 298 299 301 301 301 301 299 299 299 299 298 295 290 288 290 292 292 291 289 289 289 289 289 289 289 288 287 287 287 287 287 287 286 286 286 286 286 286 286 286 285 285 284 284 284 283 282 281 280 278 278 278 277 278 279 280 281 282 282 281 280 278 277 274 272 271 269 268 268 269
303 304 305 307 307 305 306 306 306 308 308 305 302 299 296 295 296 300 303 302 302 301 298 298 299 299 296 293 289 289 292 295 295 292 289 289 289 288 289 289 289 288 287 286 286 286 287 287 286 286 286 286 286 286 286 286 285 285 284 284 284 283 281 279 278 277 277 277 277 278 279 280 281 281 281 280 279 277 275 272 270 269 268 267 267 268
301 302 303 305 306 305 305 306 305 306 306 303 299 296 294 294 297 302 306 307 303 298 295 295 297 296 293 290 289 291 294 295 295 293 290 290 289 289 289 289 289 288 287 286 286 286 286 286 285 285 286 286 286 286 285 285 285 284 284 283 283 281 280 278 277 277 276 276 276 278 279 279 280 280 279 278 278 275 273 271 270 268 267 267 267 268
300 301 302 303 305 305 305 306 305 306 305 300 296 293 293 296 300 304 307 306 299 293 292 294 294 293 291 289 290 292 293 293 293 293 291 290 289 289 289 289 288 287 286 286 286 286 286 286 285 285 286 285 285 285 285 285 284 284 283 282 281 280 278 277 277 276 276 276 276 278 279 279 280 280 278 276 275 273 272 271 269 267 266 267 267 268
300 300 301 302 303 303 304 305 304 305 304 298 294 293 295 300 304 304 302 300 296 293 293 294 293 292 292 291 291 292 292 291 292 292 291 290 289 289 289 289 288 287 286 286 286 286 286 285 285 285 285 285 285 285 285 284 284 283 282 281 280 278 277 276 276 275 275 275 276 277 278 279 279 279 277 274 272 272 272 271 268 266 266 267 267 268
302 301 300 301 302 302 303 303 303 305 303 297 294 294 297 302 305 301 296 295 296 296 294 293 293 293 293 291 291 291 291 291 291 291 290 290 289 289 289 288 288 287 286 286 286 286 285 285 285 285 285 285 285 285 284 283 283 282 281 280 279 277 276 275 275 275 275 275 276 277 278 278 279 277 275 272 271 271 272 270 267 266 266 266 266 267
303 302 302 302 302 301 302 302 303 305 301 296 296 298 298 300 302 300 297 295 294 295 294 293 293 294 294 293 291 290 291 291 290 290 290 289 289 289 288 288 287 287 286 286 286 285 285 285 285 285 285 285 285 284 283 283 282 281 280 279 277 276 275 274 274 275 275 275 276 277 277 278 278 276 273 271 270 270 270 269 266 265 265 265 265 266
306 304 305 305 302 302 304 304 303 302 298 295 298 300 298 298 299 300 299 296 293 294 295 294 294 294 294 293 291 290 291 291 290 290 290 289 289 288 288 288 287 286 286 285 285 285 285 285 285 285 285 285 284 283 282 282 281 280 279 277 276 275 274 274 274 274 275 275 276 277 277 277 277 275 272 270 269 269 268 266 265 264 264 264 265 266
305 304 306 307 304 303 304 303 302 300 296 295 297 299 298 298 298 298 298 297 295 296 296 295 295 295 293 292 291 291 291 291 290 290 289 289 289 288 288 288 287 286 285 285 284 284 284 284 285 285 285 284 283 282 281 281 280 278 277 276 275 274 274 273 274 274 274 275 275 276 277 277 276 275 272 270 269 269 267 265 264 263 263 264 264 265
304 302 303 306 305 305 306 306 304 301 297 295 296 297 297 297 297 297 297 297 297 297 296 295 295 295 294 293 292 291 291 291 290 290 289 289 289 289 288 288 286 285 285 284 284 284 284 284 284 284 284 283 282 281 281 279 278 276 275 274 274 273 273 273 274 274 274 275 275 276 276 276 275 274 272 270 268 268 267 265 263 263 263 263 264 265
305 302 302 304 305 305 307 308 304 301 298 296 296 296 296 296 296 296 296 297 297 297 296 295 294 294 294 293 292 292 292 291 291 290 290 289 289 288 288 287 286 285 284 284 284 284 284 284 284 283 283 282 281 280 280 278 276 275 274 273 273 273 273 273 273 273 274 274 275 275 275 275 274 273 272 270 267 266 267 265 263 263 263 263 264 265
304 303 303 304 304 304 306 305 301 300 300 297 296 296 297 296 296 296 295 296 296 296 295 294 294 294 294 293 292 292 292 291 291 291 290 289 289 288 288 287 285 284 284 283 283 283 283 283 283 283 282 281 280 280 278 277 275 274 273 273 272 273 273 273 273 273 273 274 274 275 275 274 273 272 271 270 268 267 267 265 263 263 263 264 265 265
304 304 304 304 304 305 306 305 303 303 304 301 297 297 297 296 296 295 295 295 295 296 295 294 293 293 293 293 292 292 291 291 291 290 290 289 288 288 288 286 285 284 283 283 283 283 283 283 282 282 281 280 280 279 277 276 274 273 272 272 272 272 272 272 272 273 273 273 274 274 274 274 273 271 271 270 268 268 269 269 267 266 264 265 266 266
305 306 305 304 306 307 307 305 303 303 305 304 301 299 297 296 296 295 295 295 296 296 295 294 293 292 292 291 291 292 292 291 291 290 289 289 288 288 287 286 285 284 283 283 283 283 283 282 281 281 280 279 279 278 276 274 273 273 272 272 272 272 272 272 272 272 273 273 273 274 273 273 272 271 271 270 268 268 268 269 271 271 268 266 267 267
Wind_Speed
3 3 2 4 5 6 6 5 6 5 6 5 2 4 5 5 7 8 5 6 2 3 8 9 9 10 9 8 11 20 22 19 19 21 24 25 25 26 23 21 19 16 14 11 9 7 6 7 8 11 14 18 20 22 23 23 25 26 27 28 28 27 28 29 30 32 33 36 38 39 39 40 41 41 42 41 42 42 42 43 43 45 46 47 48 48
4 2 5 8 8 8 6 5 4 3 4 3 2 3 5 4 8 9 5 4 0 2 7 5 6 10 10 9 10 17 17 17 25 26 26 29 28 28 25 22 20 17 15 11 8 8 7 7 8 11 15 19 20 20 21 23 25 26 27 27 27 27 28 28 30 31 33 35 36 38 38 40 41 42 43 44 44 44 44 45 45 47 49 50 50 50
4 4 9 8 6 5 2 2 4 2 2 2 2 1 5 4 5 8 5 3 2 1 6 6 5 8 10 11 10 17 19 22 32 33 30 32 31 29 27 23 21 19 16 12 9 9 8 7 9 12 15 17 18 19 20 22 24 25 26 26 26 27 28 29 30 31 33 34 35 36 37 39 42 43 43 44 44 45 46 47 48 49 50 52 52 51
3 6 7 4 7 6 1 1 4 1 1 2 3 1 5 4 2 5 5 5 4 3 6 8 8 6 8 12 9 15 22 21 26 29 28 31 33 31 28 24 23 21 18 13 10 8 7 7 9 11 14 15 16 18 20 22 24 24 25 26 27 28 29 29 31 32 34 35 35 35 36 37 40 42 43 44 45 47 49 50 50 50 50 50 50 49
6 7 3 6 6 5 2 1 4 3 4 4 5 5 6 7 6 7 4 5 5 4 4 7 9 6 7 13 9 4 12 14 18 23 24 29 31 28 26 24 22 20 17 13 9 8 6 7 8 11 13 14 16 17 19 21 23 24 25 27 28 29 29 29 31 33 34 35 36 37 37 38 40 42 43 46 49 50 52 53 53 52 51 50 49 46
8 5 4 6 3 4 5 3 5 7 3 5 5 9 10 9 8 7 5 5 4 5 4 5 5 6 2 8 8 2 5 10 13 17 22 27 28 27 27 25 22 19 17 13 9 8 7 7 8 11 12 13 15 16 19 21 22 24 25 27 28 29 29 30 31 33 34 35 37 38 39 42 44 46 47 48 51 53 54 56 56 56 54 52 50 46
3 1 3 6 4 4 4 4 5 7 4 3 5 5 7 6 6 6 4 3 2 4 3 3 2 8 3 5 8 5 7 10 10 11 18 24 26 29 29 26 23 20 16 13 10 8 7 7 8 9 11 13 15 16 18 19 21 23 26 27 28 29 29 30 31 33 34 35 36 37 38 41 44 47 49 50 52 53 55 57 58 58 56 52 51 47
3 2 3 4 4 4 4 5 6 7 7 3 4 4 4 4 4 4 1 2 4 2 6 2 4 7 7 7 6 6 9 10 10 11 14 20 27 29 29 26 24 20 16 14 11 9 7 7 8 8 10 13 15 16 17 19 21 24 27 27 27 28 29 30 31 32 33 35 36 37 38 40 42 45 49 51 53 55 56 58 59 59 57 52 48 45
3 4 5 5 3 3 6 6 7 10 4 5 5 4 3 3 4 2 2 5 3 3 8 6 7 4 9 5 2 2 7 10 13 16 14 19 27 28 28 27 23 19 16 14 12 9 7 7 7 8 10 13 14 15 17 19 21 25 26 27 27 28 29 30 31 32 33 34 35 37 39 41 43 45 48 50 52 55 57 58 60 59 57 53 47 44
2 4 7 8 4 5 6 4 7 9 3 3 4 2 2 0 2 1 1 3 2 1 10 8 7 4 8 3 2 1 5 11 14 14 13 19 27 27 28 27 22 19 17 14 12 9 7 6 7 9 11 13 14 16 18 18 21 24 26 26 26 27 29 30 31 32 33 34 36 37 39 42 45 47 48 50 51 53 56 58 60 59 56 53 49 47
2 1 3 4 4 5 4 2 2 4 3 4 5 4 4 3 2 2 1 2 3 4 10 8 11 9 7 3 5 4 6 9 11 9 10 18 25 27 29 28 23 20 18 14 12 9 7 6 7 10 12 13 15 16 17 18 21 25 25 26 27 28 30 31 31 32 33 35 36 37 39 42 45 47 48 50 52 53 55 58 60 60 57 54 50 48
4 1 2 3 4 5 7 4 3 3 3 5 4 4 4 5 4 4 4 3 1 6 7 4 8 9 8 6 5 8 8 7 7 8 12 18 24 28 31 29 24 20 17 15 12 9 7 6 8 11 12 14 16 16 17 20 23 25 26 28 29 30 30 31 32 33 34 35 37 39 40 42 44 46 47 48 51 53 55 58 60 59 57 55 51 48
3 4 3 2 2 5 6 4 3 5 4 5 4 4 3 5 4 3 4 0 3 7 4 2 2 5 10 10 8 12 12 8 7 10 15 19 23 29 31 28 24 19 16 14 11 9 7 7 9 12 14 15 16 17 18 21 23 25 27 29 30 31 31 32 33 34 35 36 38 40 41 42 44 45 45 46 49 52 54 56 57 56 54 53 52 50
3 4 2 1 2 7 8 5 2 2 1 4 3 3 1 1 3 5 5 3 5 7 2 3 2 4 8 8 8 11 10 9 11 16 19 22 28 32 31 27 22 18 15 12 9 8 6 7 11 13 14 16 17 18 19 21 23 25 27 29 31 32 31 32 34 35 36 37 38 41 42 43 44 45 45 46 48 51 53 53 53 52 51 49 50 50
2 5 3 5 2 7 9 5 5 5 3 4 4 4 4 3 3 5 4 5 9 7 3 1 1 4 4 2 4 6 7 6 8 13 14 20 28 31 28 24 20 17 14 11 9 7 6 8 11 13 14 16 17 18 20 22 24 27 28 30 31 32 32 33 34 35 37 38 39 42 43 43 44 45 46 46 47 49 51 51 50 49 48 47 47 49
4 6 6 2 0 6 7 4 5 6 3 2 2 4 2 4 5 4 4 5 4 6 5 3 4 6 5 2 1 2 3 4 1 7 14 20 25 27 25 23 20 16 13 10 8 6 5 8 11 13 15 16 18 19 21 23 25 28 29 30 30 31 32 33 35 36 38 39 41 42 43 44 44 46 47 47 48 49 50 50 48 47 46 45 46 46
2 6 4 1 1 2 3 3 3 3 3 2 2 3 4 3 5 2 5 1 2 4 6 3 6 7 2 2 2 3 2 3 3 6 13 18 21 23 23 22 19 15 12 9 7 4 6 9 11 13 15 17 18 20 22 24 26 27 28 29 30 31 32 33 35 37 39 40 42 43 44 45 45 46 47 48 49 49 49 50 47 47 46 44 45 45
3 4 4 3 2 2 1 2 2 2 4 5 3 5 3 3 3 2 2 3 0 5 6 3 9 11 4 3 3 3 2 4 4 5 8 12 17 20 21 21 18 13 10 8 6 4 7 9 10 13 15 17 19 22 24 25 26 26 27 28 30 31 32 34 35 37 39 40 42 44 45 46 46 47 47 47 49 49 49 49 47 46 46 44 44 44
2 3 5 1 2 2 2 2 1 3 1 4 3 2 3 2 1 2 2 3 3 6 7 4 7 11 8 4 2 4 9 10 8 7 7 11 16 19 21 21 16 12 10 8 6 4 7 8 11 14 16 18 20 22 24 25 26 26 27 28 29 31 32 34 36 37 39 40 42 45 46 47 47 47 48 47 48 48 48 49 48 46 46 45 44 43
3 2 4 2 2 2 2 2 3 3 2 2 0 2 1 3 4 3 2 2 3 6 9 6 6 9 7 6 7 11 14 13 11 10 11 13 17 21 23 21 17 14 12 9 6 5 6 8 12 15 17 19 20 22 23 24 26 26 27 28 29 30 31 33 36 38 40 41 43 45 46 47 48 48 49 48 47 47 47 48 48 46 46 45 44 43
3 2 3 2 3 1 3 4 7 8 4 2 2 2 2 2 1 2 2 2 3 6 7 6 9 12 4 5 7 9 12 13 14 14 13 13 19 24 24 22 19 16 13 9 6 5 7 9 13 15 17 19 20 22 23 24 26 26 27 28 29 31 32 34 37 38 40 42 43 45 46 48 49 50 50 49 47 46 47 47 47 46 46 45 45 44
2 3 4 2 2 4 5 5 5 8 7 6 6 6 7 6 2 3 5 3 3 6 5 3 11 13 3 4 5 7 8 10 14 16 12 14 23 26 26 24 19 16 13 9 6 6 8 11 13 15 17 19 20 22 23 25 26 26 27 28 30 32 34 36 38 39 41 43 44 46 48 50 51 51 51 50 48 47 46 47 47 47 47 47 46 45
3 3 3 4 4 5 5 4 2 2 2 3 5 5 5 6 6 6 8 3 2 5 2 1 10 11 1 3 4 5 6 10 18 19 14 17 26 28 26 23 19 16 12 8 6 6 8 10 12 14 17 19 21 23 24 25 26 27 28 29 31 33 34 37 39 41 42 44 45 47 49 51 52 51 51 49 48 48 47 47 47 47 47 47 47 45
3 3 3 4 3 1 2 4 4 4 3 1 5 5 6 8 9 8 6 1 2 5 2 1 12 10 1 2 1 0 1 7 17 21 18 19 24 27 25 22 18 15 11 7 6 6 8 10 12 14 17 19 21 23 24 26 27 28 29 30 32 34 36 38 41 42 44 45 47 49 50 52 52 51 50 48 48 48 47 47 47 47 47 48 48 46
5 2 2 2 5 5 3 4 4 3 0 3 5 5 8 11 7 2 1 1 4 7 7 7 15 11 1 2 3 4 4 5 9 16 20 21 23 25 24 21 18 15 10 7 7 7 7 9 11 14 17 19 21 23 24 26 27 28 30 31 33 35 38 40 42 43 45 46 48 50 51 51 51 51 50 48 49 49 49 49 48 48 47 46 48 48
8 3 5 5 5 7 7 5 3 3 3 3 4 7 10 13 11 5 1 4 8 7 9 12 15 13 6 2 2 2 6 6 6 11 18 21 24 27 25 22 19 15 11 9 8 7 7 9 11 14 16 19 21 23 24 26 27 29 30 31 34 36 39 41 42 44 45 47 49 50 51 51 51 51 50 49 50 50 50 50 50 49 48 46 48 49
4 2 7 10 11 12 13 12 4 5 4 5 7 10 11 12 13 9 4 8 11 6 10 18 15 18 19 7 6 6 7 8 8 10 15 20 24 27 26 22 19 15 12 10 8 8 7 8 11 13 16 18 20 22 24 26 27 29 31 32 34 37 39 41 43 45 46 48 49 50 51 51 51 51 52 51 52 51 51 51 51 51 48 46 47 45
4 4 10 12 16 17 18 16 6 5 9 13 12 11 11 10 12 13 13 16 12 5 14 22 14 18 27 14 8 11 11 9 9 12 18 23 26 27 25 22 19 14 12 11 9 7 6 8 10 12 15 17 20 22 23 25 27 29 31 33 35 37 39 42 43 45 47 48 49 50 51 51 52 53 53 53 52 52 52 52 52 51 49 45 43 41
3 8 10 10 15 19 18 14 7 6 8 13 16 12 9 12 16 18 20 21 15 11 19 26 19 21 26 15 8 12 13 12 15 20 25 27 27 27 25 23 20 15 13 12 9 6 6 8 10 12 15 17 19 21 22 24 26 28 31 33 35 37 39 41 43 45 47 48 49 50 51 52 53 54 55 54 53 52 52 53 52 51 49 45 40 37
4 7 8 8 12 17 15 11 8 8 8 14 21 14 8 14 19 19 20 23 21 20 25 27 26 29 27 14 8 12 16 18 20 24 25 25 27 29 27 25 21 17 15 13 9 6 5 7 9 12 14 17 19 21 22 24 26 29 31 33 36 38 39 42 43 45 47 49 50 51 52 53 54 55 55 54 53 52 52 53 53 51 48 44 40 36
5 5 3 4 7 14 12 7 6 7 8 17 23 16 12 16 17 17 21 22 19 21 27 26 24 27 24 13 10 12 15 16 16 19 23 26 30 30 29 26 22 19 17 12 8 5 5 6 8 11 13 16 18 20 22 24 26 29 31 33 36 38 40 42 44 46 47 49 50 51 52 53 54 55 56 54 52 52 51 52 52 50 46 42 39 36
5 4 1 4 5 12 5 1 0 2 5 16 24 21 18 18 18 18 20 20 19 20 23 20 17 21 17 7 7 10 13 13 13 18 23 26 31 32 30 28 24 21 17 11 6 3 4 6 8 11 13 15 17 19 21 24 26 29 32 34 36 38 40 43 44 46 48 48 49 51 52 54 54 55 56 54 51 51 51 51 50 47 44 41 38 35
6 4 2 4 7 8 1 5 2 3 5 15 19 18 20 21 21 19 18 22 22 17 14 14 16 19 11 3 6 8 10 10 12 20 25 27 31 34 31 28 24 19 15 8 4 2 3 5 7 10 12 14 16 18 20 23 26 29 32 34 37 38 41 44 45 47 48 48 49 50 52 53 54 55 56 55 52 50 49 48 48 46 43 40 38 35
6 6 4 4 4 3 1 4 4 1 10 13 6 5 14 19 21 21 22 25 21 14 15 17 18 17 10 6 9 8 10 14 19 28 32 32 34 35 30 26 22 17 12 7 4 2 2 4 7 8 11 13 15 17 20 23 25 28 31 34 37 39 41 44 46 47 48 48 49 50 51 52 53 55 56 55 53 50 49 47 46 45 41 39 37 35
9 8 4 3 2 1 2 5 2 8 13 7 2 2 9 12 14 17 22 25 20 16 19 20 21 22 17 12 10 10 15 21 24 29 32 33 35 35 30 25 21 15 10 6 4 3 2 3 6 8 10 12 14 17 20 22 25 28 30 34 37 39 42 44 47 48 48 48 49 49 50 51 53 54 56 56 54 51 49 47 45 44 40 36 36 35
10 7 3 3 3 1 2 4 7 10 12 10 5 3 3 4 5 7 15 23 20 17 18 19 23 25 19 13 10 12 16 17 16 20 28 31 30 29 26 23 19 14 10 7 5 3 1 3 5 8 10 12 15 17 20 22 25 28 31 34 37 40 43 44 47 48 48 49 49 49 50 51 53 55 56 56 54 51 49 47 45 43 39 37 37 37
9 8 4 4 4 4 5 7 8 7 17 22 14 5 6 6 6 7 10 18 13 11 14 18 21 22 15 8 9 14 15 12 7 11 22 27 24 21 20 19 16 13 10 7 5 4 1 2 5 7 9 12 15 18 21 23 26 29 32 35 38 42 44 45 47 48 49 49 49 49 50 51 53 55 55 55 53 51 49 47 45 43 40 39 40 41
7 7 7 8 7 5 6 7 5 5 14 16 7 3 6 7 7 8 4 13 8 10 14 17 18 17 9 5 11 16 16 8 2 8 20 25 23 21 20 18 16 13 10 8 6 4 2 3 4 6 9 11 14 18 21 24 27 30 32 36 39 43 45 46 47 47 48 49 49 49 49 50 53 54 54 53 51 49 48 47 45 43 39 38 40 41
3 1 4 6 5 4 6 7 6 9 15 9 4 2 5 11 11 8 2 10 8 10 15 16 14 11 7 11 15 14 11 6 6 9 22 28 26 25 24 19 17 13 10 9 7 4 4 3 4 6 9 12 15 18 21 24 28 30 33 37 40 43 45 46 47 47 48 49 49 48 49 50 51 52 51 50 48 47 46 46 44 41 37 36 38 40
3 1 3 6 8 9 9 8 5 8 12 6 7 5 9 17 14 8 4 12 7 9 15 15 11 11 12 17 17 11 8 10 8 10 25 31 27 26 24 18 16 14 11 10 7 6 5 3 4 6 9 12 15 19 22 25 28 31 34 37 39 42 44 45 46 47 47 47 47 47 48 49 49 49 48 47 46 45 43 43 41 39 37 36 37 37
2 3 5 8 11 11 10 8 6 8 9 7 9 12 17 15 10 2 8 9 7 10 16 18 15 16 21 23 18 12 12 11 6 11 27 31 28 27 24 19 17 14 12 11 9 8 6 4 5 7 10 13 16 20 23 25 29 31 34 37 39 41 43 44 45 46 46 46 46 46 47 47 47 47 45 44 43 42 41 39 38 37 37 36 35 35
3 3 4 7 6 6 7 6 5 10 8 12 17 21 22 12 2 8 7 7 14 16 18 20 20 22 27 29 25 19 15 11 9 17 28 31 29 28 25 21 19 16 14 13 11 9 7 5 5 7 10 13 16 20 23 26 29 31 34 37 39 40 42 43 44 45 45 45 45 45 46 46 45 44 44 42 40 39 40 38 37 36 36 34 33 33
8 6 5 6 5 4 3 5 5 10 8 24 23 14 13 9 10 8 7 8 16 22 20 20 22 24 28 30 26 21 17 15 17 22 28 30 29 27 25 22 19 17 16 14 12 9 6 5 6 7 11 14 17 21 24 26 29 31 33 36 38 40 41 42 42 42 43 43 43 44 44 44 43 42 41 40 38 37 39 38 36 35 34 32 32 32
8 8 6 6 6 6 5 10 10 6 10 33 27 11 18 29 23 12 12 9 13 20 21 21 22 25 28 29 26 23 21 22 23 26 29 30 29 27 24 21 19 17 17 14 12 9 6 5 6 8 12 14 17 20 23 26 29 31 33 35 37 39 40 40 40 40 41 41 42 43 43 42 42 41 39 38 37 37 38 38 36 34 33 31 31 31
12 13 7 4 8 9 9 13 10 2 14 38 34 17 24 39 30 16 18 18 17 21 23 21 22 25 27 29 29 27 26 25 26 27 28 28 29 28 24 21 20 19 17 15 12 9 7 5 5 8 12 15 17 20 22 26 29 30 32 35 36 38 39 38 38 39 40 41 41 41 42 42 41 39 37 36 36 37 37 38 37 35 33 31 31 31
8 9 3 1 6 10 12 14 9 4 12 33 38 22 17 27 28 21 20 21 21 23 22 21 24 26 27 29 30 29 29 28 27 28 28 27 28 27 24 22 21 20 18 15 12 9 7 5 5 8 11 14 17 19 22 25 27 29 31 33 34 35 36 36 37 37 38 39 39 39 40 41 40 39 37 36 36 37 36 36 36 35 34 33 31 30
4 8 6 4 6 7 13 17 14 13 16 27 35 28 19 22 28 28 24 21 20 22 23 23 23 25 27 30 31 30 30 29 29 30 29 27 27 27 24 23 22 20 18 15 12 9 7 5 6 8 11 13 16 19 22 24 26 27 29 31 32 33 33 34 35 36 37 38 38 37 39 40 40 39 37 37 37 37 37 35 34 34 34 33 31 32
6 11 10 11 10 10 15 13 4 10 23 29 32 32 27 26 30 30 27 24 20 20 24 25 25 25 27 30 32 32 31 29 28 29 29 29 28 27 25 24 22 20 17 15 12 9 6 5 6 8 11 13 16 19 21 23 25 26 27 28 30 31 32 32 33 34 35 36 36 36 37 38 39 38 37 37 37 37 38 36 34 34 33 31 30 33
8 11 9 10 10 12 20 13 5 3 13 22 28 36 37 34 33 31 28 26 24 23 26 28 28 25 26 29 33 33 31 29 27 27 29 31 30 27 26 24 22 20 17 15 12 9 6 5 6 8 10 13 16 19 21 22 24 24 25 27 28 30 31 32 32 33 34 34 35 36 36 37 37 37 37 37 38 38 38 35 32 32 31 27 26 28
9 10 7 6 8 13 20 17 10 6 8 14 28 41 42 35 33 34 32 30 29 28 29 31 30 26 26 30 34 34 30 28 28 29 30 31 30 28 27 25 23 20 18 15 12 8 5 5 6 8 10 13 16 18 20 21 22 23 24 25 27 29 30 31 32 32 33 33 34 35 36 36 36 36 36 38 38 40 41 39 34 32 31 28 24 22
15 16 12 10 14 19 20 20 19 16 11 15 27 38 40 37 35 37 38 37 34 31 31 32 32 29 29 32 34 32 28 27 29 31 31 30 29 28 26 24 23 20 17 15 12 8 5 4 5 7 10 13 15 17 19 20 20 21 22 24 25 27 29 30 31 32 32 33 34 35 35 34 35 35 36 37 38 39 43 44 41 38 34 30 25 22
Wind_Direction
57 28 315 256 251 224 213 192 182 190 176 181 188 214 243 242 269 277 264 276 233 199 257 238 233 253 248 232 206 195 195 201 207 206 205 201 198 200 201 200 199 199 198 202 218 232 262 293 325 344 350 353 354 357 360 2 2 1 357 352 350 348 345 343 340 340 340 341 341 340 339 337 334 332 330 331 332 331 330 330 328 324 321 321 319 316
67 7 265 235 224 202 199 195 170 163 170 172 178 237 274 237 255 276 270 286 95 172 270 255 232 255 252 244 209 185 186 203 205 204 206 202 200 203 202 201 199 197 197 203 219 230 249 287 322 339 346 350 354 358 360 1 2 360 356 353 351 349 346 345 343 341 341 342 342 339 337 334 332 332 331 331 333 333 331 330 328 326 324 324 322 319
13 279 261 245 200 154 123 149 154 169 170 173 161 211 291 255 266 292 298 326 19 185 276 279 252 255 259 256 219 188 195 210 209 208 207 202 199 201 200 199 198 196 200 208 220 227 246 291 322 336 343 350 354 357 358 360 1 359 356 353 350 347 345 345 343 342 341 341 341 338 335 333 331 330 330 330 332 333 331 330 329 329 328 325 322 319
326 256 250 212 149 138 41 79 128 130 249 198 174 184 272 276 292 288 309 337 320 256 258 276 267 254 257 257 240 198 203 214 215 214 213 206 202 202 202 203 202 201 204 213 222 225 251 295 317 332 341 348 351 355 359 359 359 357 353 350 347 344 343 343 342 341 341 339 338 336 333 332 329 328 327 328 330 332 332 331 331 331 328 324 320 316
257 255 182 118 125 152 183 145 136 171 276 261 208 204 249 269 251 244 291 336 316 291 273 297 286 255 229 243 253 199 206 219 213 210 213 210 207 207 208 207 207 206 209 217 223 227 258 290 311 329 338 345 349 354 357 357 356 354 350 347 344 341 340 341 341 340 341 339 337 335 333 332 330 330 330 330 331 333 333 332 331 330 328 325 320 316
261 266 147 129 116 147 169 210 185 176 235 297 240 214 231 252 256 263 329 357 333 308 317 12 312 273 240 244 252 167 202 222 204 204 211 209 206 207 208 205 204 206 211 219 221 229 262 289 309 325 332 341 347 351 354 354 353 350 347 346 342 339 339 339 339 340 340 340 340 339 338 337 336 335 334 333 331 332 333 332 331 330 329 327 322 317
259 356 102 137 147 151 174 243 226 167 141 287 255 206 212 229 246 268 328 352 271 264 294 59 280 274 284 247 242 191 203 223 205 209 214 208 205 206 207 203 201 205 209 213 216 230 258 283 303 317 328 339 344 347 349 349 350 347 345 345 342 339 338 338 339 340 341 340 341 340 338 338 336 334 333 333 331 329 330 330 330 329 327 326 323 320
165 94 51 104 132 157 189 250 227 156 132 238 246 133 141 198 233 250 268 266 246 272 294 215 172 273 273 248 248 183 200 230 221 220 218 208 207 207 205 202 200 204 207 207 212 227 250 278 300 312 326 337 341 343 344 344 345 346 345 344 342 338 337 338 338 339 340 340 340 339 337 336 334 331 330 331 331 330 329 327 327 326 325 325 322 317
157 171 200 155 132 188 208 229 190 157 158 245 216 141 138 200 217 227 210 254 283 13 290 242 148 261 269 248 345 121 205 242 232 221 216 208 209 207 202 200 202 205 206 206 211 225 247 272 292 308 326 335 337 339 340 341 342 344 344 343 342 339 337 338 338 338 339 339 338 337 335 334 333 330 329 329 330 330 328 326 326 325 324 323 319 314
187 192 196 158 157 215 219 224 174 164 199 220 159 115 4 22 198 211 215 258 29 14 268 246 155 222 269 224 97 64 226 242 236 223 212 209 212 209 201 200 203 205 204 204 209 221 246 264 286 313 328 334 336 340 339 338 340 343 344 342 342 341 338 338 338 337 338 338 337 335 332 332 331 330 329 328 328 329 328 327 327 326 323 321 318 314
288 88 168 165 189 191 160 131 127 151 161 115 84 21 355 359 24 43 50 73 61 268 259 230 175 197 271 245 172 194 217 221 222 211 198 208 213 209 203 201 202 203 200 200 208 219 239 258 292 318 330 336 339 341 338 337 341 344 343 341 342 342 339 338 337 336 336 336 335 333 331 329 328 328 327 327 328 328 329 329 328 327 323 320 318 315
338 98 211 230 191 137 107 89 34 28 84 95 69 31 350 324 5 24 354 49 88 260 262 225 183 196 242 249 206 228 241 224 207 194 194 204 207 203 200 200 201 199 196 199 209 221 237 266 301 323 334 341 342 340 339 341 344 344 343 341 342 341 339 336 335 334 334 335 333 330 328 327 325 325 325 325 327 329 329 330 329 327 324 321 317 316
312 215 259 330 195 160 121 90 6 356 38 78 77 59 14 325 354 347 298 256 216 249 247 120 147 220 243 250 245 243 250 249 217 203 205 200 194 195 196 196 197 196 197 202 212 227 251 289 316 332 340 342 342 341 343 344 343 342 343 341 340 339 338 335 333 332 333 332 330 327 325 324 323 322 323 323 326 329 329 328 328 325 322 319 316 317
301 293 300 2 248 191 159 140 202 264 103 137 137 123 150 334 330 293 277 275 277 271 249 114 113 267 266 263 253 248 264 269 233 221 218 199 188 191 192 191 193 193 198 205 215 237 270 309 328 338 342 342 342 342 343 342 341 342 342 341 338 337 337 334 332 330 329 328 327 325 324 323 323 322 322 323 325 328 328 326 324 322 319 315 313 314
235 302 226 186 212 179 177 183 170 143 137 177 151 135 165 166 225 267 265 268 292 297 266 160 160 238 244 257 262 266 298 301 238 217 203 188 185 186 185 186 191 193 197 206 220 246 287 320 333 340 342 341 341 341 341 340 340 341 341 339 337 336 334 332 330 327 326 326 324 323 323 323 323 322 322 323 324 326 327 326 323 321 317 312 309 308
189 260 245 233 249 161 174 187 140 110 112 217 120 118 186 182 189 247 250 233 293 310 276 214 211 228 211 212 319 326 345 20 115 165 154 164 175 177 180 185 189 193 196 208 227 252 301 326 334 340 341 339 338 339 340 339 340 340 338 336 334 333 332 329 327 325 324 324 323 322 323 323 323 323 322 323 324 325 325 325 323 319 314 309 308 306
188 264 264 47 350 190 172 171 133 116 167 164 127 182 219 164 149 233 281 310 63 285 273 236 253 276 275 256 342 49 36 50 84 146 149 160 170 173 181 186 187 192 198 214 233 261 311 328 336 339 339 337 336 338 339 339 339 337 334 332 331 330 328 326 324 323 323 323 322 322 322 323 323 322 323 323 323 324 325 326 323 318 314 310 307 306
196 268 260 153 200 249 172 123 41 29 138 137 190 215 182 96 92 113 282 321 313 249 267 252 264 277 270 261 323 43 227 219 196 181 163 169 176 180 185 186 189 194 202 218 230 268 314 329 336 338 338 336 337 338 338 338 336 334 331 328 328 327 326 325 324 323 323 323 322 321 321 322 322 321 322 322 322 322 324 325 323 319 317 312 308 304
159 259 275 175 194 237 62 91 19 330 94 138 210 231 119 144 244 124 152 268 262 261 272 265 270 269 243 225 247 212 213 211 199 193 194 191 188 188 188 187 190 197 204 211 221 277 314 333 338 336 336 335 338 338 335 334 332 330 329 326 325 325 324 325 323 322 323 323 322 321 320 321 321 321 321 320 320 321 322 324 323 320 317 314 308 303
133 221 270 316 291 269 63 124 193 246 357 57 319 321 38 184 208 195 165 204 241 268 277 280 287 272 234 187 206 213 206 198 187 191 206 204 194 190 187 188 193 198 203 207 220 283 316 334 335 333 333 334 336 335 332 331 330 329 328 326 325 325 324 324 323 323 323 323 322 321 321 321 320 320 320 318 319 320 321 322 322 319 316 313 309 303
106 212 242 318 323 242 180 198 192 187 174 145 183 225 244 206 204 262 225 158 209 258 272 277 276 270 234 162 205 214 206 196 184 192 207 200 191 191 190 192 196 198 200 208 229 287 317 327 328 328 331 333 332 332 330 331 331 329 329 328 327 327 326 325 324 325 324 323 323 322 322 322 321 321 320 319 319 319 320 320 319 317 315 312 310 307
157 195 197 182 234 214 227 237 204 191 188 179 186 195 206 204 187 266 255 205 192 241 240 254 276 271 222 158 207 204 203 197 187 194 201 188 188 192 195 196 197 199 201 209 242 292 312 319 324 326 329 331 330 330 331 331 332 331 330 330 330 329 328 327 326 327 326 325 324 324 323 323 323 322 321 320 320 320 321 320 318 316 315 312 310 309
135 128 184 222 216 204 249 289 296 235 209 198 212 198 190 189 175 215 246 231 177 239 227 73 275 270 162 133 211 211 212 194 189 195 190 182 189 192 193 195 195 199 206 218 251 290 308 313 321 326 328 329 329 332 333 333 334 334 334 333 332 331 330 329 329 328 327 326 325 325 325 324 323 323 322 322 321 320 321 320 318 315 313 312 310 306
107 110 201 268 302 1 326 330 350 18 58 232 242 196 182 203 198 209 234 153 182 235 166 191 258 259 37 45 262 96 231 192 190 193 183 178 189 190 190 193 195 199 207 223 253 282 299 308 320 326 328 329 331 334 335 336 336 337 337 337 335 334 333 332 331 330 329 328 328 327 326 325 324 324 325 325 324 323 321 320 319 315 312 310 309 306
169 167 180 255 311 313 319 341 334 325 186 223 236 197 202 217 209 209 44 104 250 227 176 220 255 257 298 20 42 85 131 171 188 189 182 178 184 188 189 192 195 199 207 223 248 271 288 307 320 325 328 330 333 335 337 339 340 340 340 339 337 336 335 334 332 331 331 330 329 328 327 326 326 327 328 329 328 325 323 322 320 317 312 309 308 307
174 187 169 184 244 258 262 267 245 226 208 227 235 209 210 210 200 201 198 218 243 224 192 228 256 267 266 135 108 166 158 165 189 185 185 186 185 187 190 192 195 198 207 224 245 265 285 310 321 325 329 331 334 338 340 342 343 342 342 341 340 338 336 335 334 333 333 332 330 329 329 329 329 330 331 331 330 327 324 323 320 316 313 309 307 308
140 220 198 203 222 232 248 256 223 138 174 226 229 209 203 204 201 202 216 233 238 234 240 244 249 267 269 234 175 215 189 181 194 183 188 192 187 188 191 194 196 199 211 227 244 263 286 313 320 325 330 333 338 342 344 346 345 343 343 343 342 340 337 336 335 335 334 332 331 330 331 332 333 333 333 333 332 329 324 321 319 317 315 310 307 309
99 240 219 216 229 233 246 253 229 175 227 244 245 222 197 192 195 200 217 234 235 232 258 256 243 254 265 255 203 213 206 195 195 186 191 190 186 189 191 192 196 201 214 226 239 261 291 313 318 327 334 339 343 345 347 348 345 343 344 344 343 341 338 336 336 336 335 333 333 333 334 335 335 335 335 335 333 329 324 322 320 319 318 314 310 311
131 237 224 211 234 242 247 252 229 206 241 256 257 242 194 185 196 207 223 234 232 227 252 264 263 258 264 263 220 209 204 201 199 194 192 187 184 187 188 190 197 204 214 224 237 259 291 310 321 335 341 343 346 346 347 347 345 345 345 344 343 340 338 337 336 336 335 335 335 336 336 336 336 336 337 337 335 331 328 326 324 321 319 318 316 313
156 244 233 204 238 252 250 248 236 231 253 263 260 251 209 209 212 216 233 240 237 238 250 263 270 267 267 267 245 224 210 203 197 189 185 182 183 186 187 191 199 206 214 222 231 252 288 316 334 345 346 346 347 346 347 346 346 346 345 344 342 339 338 338 337 337 336 336 337 338 338 337 337 336 337 337 336 333 330 328 325 323 321 320 319 316
191 240 237 169 244 264 252 236 231 239 256 264 265 259 234 237 237 231 241 247 244 246 251 257 264 267 268 264 247 224 195 183 178 177 181 184 185 186 188 194 200 205 211 217 223 247 307 330 344 349 347 348 348 345 346 346 346 346 344 343 340 338 338 338 337 337 337 338 338 338 338 337 336 336 337 338 337 334 333 330 327 325 323 321 319 316
194 228 42 107 239 260 256 106 237 313 291 270 269 261 240 240 242 234 236 240 235 238 250 255 256 261 267 259 223 197 170 165 169 174 181 187 188 189 191 194 199 204 206 211 221 261 330 340 349 349 346 348 347 345 345 344 346 345 342 340 339 338 338 337 336 337 337 338 338 338 338 337 336 336 336 338 338 336 334 332 329 327 326 322 319 314
169 188 161 146 228 257 28 82 92 35 303 268 262 246 227 228 234 237 243 243 232 227 240 247 244 252 258 185 185 194 175 172 178 181 185 188 190 192 194 196 199 203 203 205 224 276 333 341 348 348 344 345 344 345 346 344 344 344 340 339 339 338 337 336 336 337 337 338 339 338 338 337 335 335 335 337 339 337 335 334 331 330 328 324 320 313
173 188 191 171 207 249 99 86 81 311 266 265 265 205 205 211 220 228 240 244 233 215 224 239 250 258 256 212 203 197 184 193 198 196 197 198 195 193 195 198 199 199 198 199 220 264 320 338 347 346 341 342 342 342 345 343 342 341 339 339 338 337 336 335 335 337 337 338 339 338 337 335 334 334 335 337 338 338 337 336 334 331 329 325 320 313
178 189 193 172 171 201 108 81 118 241 251 254 80 169 205 201 206 221 240 249 242 225 228 242 253 255 253 241 219 190 194 205 205 202 203 204 200 193 190 194 195 193 193 194 214 249 299 333 343 341 335 338 341 341 342 341 339 339 339 338 337 336 336 336 335 336 337 338 338 337 335 334 334 334 335 336 338 338 338 337 336 333 331 327 322 316
172 177 175 154 153 168 129 161 216 256 292 290 255 200 174 184 195 222 258 263 250 230 227 234 245 252 253 248 221 196 195 194 191 200 202 200 197 193 190 193 191 190 194 195 207 231 279 324 330 333 331 334 338 339 339 338 336 337 338 338 337 337 337 337 336 337 338 338 337 336 335 335 334 335 335 337 338 339 338 338 337 334 332 328 325 321
165 170 182 186 200 206 199 220 240 303 309 288 265 198 165 195 184 178 257 271 252 210 212 225 241 251 250 226 185 168 159 147 151 199 197 188 188 192 194 194 189 188 193 195 200 210 232 307 314 321 327 332 335 335 336 335 334 336 338 337 338 338 338 338 338 338 338 337 336 336 336 336 335 335 336 338 339 339 339 339 337 335 333 330 325 322
180 183 189 199 216 207 208 246 266 276 275 271 258 186 183 185 161 144 242 280 255 180 195 215 232 241 233 157 148 144 137 138 201 211 191 183 184 187 187 188 189 189 193 197 199 204 228 285 304 315 323 329 332 331 332 333 333 335 336 337 338 338 338 339 339 338 337 336 336 336 337 336 336 337 337 338 340 340 340 339 337 335 333 327 320 317
181 187 181 200 218 186 199 235 231 240 256 247 167 183 166 149 142 109 15 279 243 178 192 208 217 221 184 149 157 146 138 187 245 209 187 183 184 185 184 187 190 190 194 197 199 214 238 270 297 311 320 325 328 329 329 331 333 334 335 338 338 337 338 339 339 338 337 336 336 336 337 337 337 338 338 339 341 342 341 338 335 332 328 322 317 316
167 160 163 201 219 205 208 229 227 249 256 214 153 175 162 149 134 87 324 266 223 168 191 199 201 201 169 156 161 157 173 209 230 200 185 182 182 186 189 193 194 194 197 198 201 218 230 253 287 303 317 323 326 328 329 330 332 333 336 338 337 338 339 339 339 338 337 336 336 337 337 338 339 339 340 342 344 345 342 338 334 331 327 323 321 321
191 191 185 209 222 215 213 225 245 261 246 182 152 163 155 135 113 126 251 239 169 172 197 191 189 189 170 161 169 184 202 210 204 178 178 179 181 185 190 198 199 197 201 204 211 225 229 246 280 300 318 325 327 328 329 330 332 334 336 337 338 339 339 339 339 339 337 336 337 338 338 340 341 341 343 346 347 345 342 339 336 333 330 326 324 324
177 172 206 220 218 211 219 221 251 273 237 158 154 163 154 138 200 229 214 150 150 178 195 191 191 186 175 177 186 192 193 186 165 165 172 177 183 187 192 197 196 196 203 205 212 222 223 246 285 304 319 326 328 328 329 331 332 335 337 337 337 339 339 339 340 339 337 337 338 339 340 342 344 345 346 349 349 346 345 343 339 335 331 328 328 328
172 161 195 215 187 165 226 207 221 268 204 148 145 155 161 188 230 201 139 138 170 181 186 190 194 189 184 187 190 187 181 170 163 167 172 178 186 190 193 195 195 199 206 206 212 219 220 248 287 309 319 326 330 329 329 331 333 336 337 337 338 339 339 341 341 339 338 339 340 341 342 344 348 350 351 351 350 349 348 345 340 336 333 332 332 333
176 174 181 206 180 150 194 205 211 259 163 152 155 173 196 207 218 187 156 175 185 181 182 187 194 197 195 192 186 181 176 168 166 170 173 180 187 190 192 195 198 204 208 208 210 215 221 250 285 311 320 325 330 330 330 332 333 336 338 338 339 340 340 342 342 340 340 341 342 343 345 348 352 354 354 354 353 352 349 345 341 338 336 336 336 337
199 192 180 192 188 180 209 217 209 198 165 174 183 197 199 206 215 201 180 183 182 185 188 188 195 202 201 195 187 179 177 174 173 176 178 182 187 191 194 199 202 206 209 206 206 210 221 247 282 311 320 325 330 331 332 333 334 337 339 340 341 341 341 343 343 342 342 344 345 346 347 351 356 358 357 356 356 355 350 344 341 339 339 339 339 340
210 195 163 129 199 213 248 249 221 181 179 190 200 214 212 207 208 201 192 186 182 188 191 192 199 202 199 197 190 182 181 181 178 179 183 185 188 193 198 201 203 206 207 205 205 209 220 249 287 310 319 325 329 331 333 334 335 338 341 341 342 342 343 344 345 345 345 346 348 350 351 354 359 1 360 358 359 358 353 345 341 340 339 339 339 342
217 187 189 212 188 199 247 251 228 209 199 196 204 216 224 213 206 203 202 196 190 194 196 195 199 201 200 200 196 189 187 185 181 182 187 189 193 197 200 202 203 205 205 205 206 210 220 252 289 309 321 327 329 332 334 335 337 341 342 342 342 343 345 347 348 348 348 348 351 353 355 358 1 3 2 2 2 1 358 352 348 344 341 341 341 344
187 168 190 222 209 206 239 251 229 203 208 204 205 212 217 215 209 205 204 203 200 201 202 199 198 201 203 203 201 196 191 188 188 190 191 193 197 199 200 203 205 205 204 205 207 210 223 257 289 310 323 329 331 333 335 337 340 343 343 344 344 345 348 350 352 352 351 352 354 357 359 2 3 4 5 5 4 2 0 357 353 349 345 345 345 343
143 156 184 211 208 233 248 245 84 102 225 216 212 215 218 215 208 202 201 204 202 201 203 203 203 207 210 206 201 198 193 191 196 198 196 197 198 199 201 204 204 205 206 205 205 210 224 261 293 314 326 331 333 334 336 339 343 345 346 346 346 347 350 353 354 355 355 355 357 0 2 5 6 7 8 7 6 5 4 2 358 353 350 352 353 346
155 189 190 168 187 232 245 230 184 184 237 225 215 217 218 213 206 201 199 200 200 200 203 204 204 208 211 208 202 199 196 195 199 201 200 200 200 202 205 205 203 203 203 204 205 209 223 260 296 319 328 332 333 334 337 342 345 347 348 349 349 350 352 354 356 358 359 359 1 3 5 7 9 10 11 11 9 7 8 11 15 13 5 360 0 359
198 204 187 181 210 227 238 230 208 204 230 238 224 218 214 208 205 203 202 202 202 202 204 205 204 204 204 203 201 200 201 201 200 200 200 201 202 204 205 205 204 203 201 202 205 208 223 261 301 323 329 332 334 335 340 345 348 350 350 351 352 353 354 356 357 359 1 2 5 7 8 9 10 12 14 14 13 10 8 11 18 25 24 17 11 11